This demonstration page uses our WeatherBlox Daily Observations layout. Learn more.

Left ArrowRight Arrow

34.02893, -84.19858

Hourly Observations for November 24, 2022

Temp ( °F °C ) Dew Point ( °F °C ) Humidity (%) Winds ( mph kmh ) Pressure ( in mb ) Visibility ( mi km ) Precip ( " mm )
12:53 am 00:53 Mostly Cloudy 48 8.9 41 5 76 76 Calm 30.22 1023 10 16 0.00 0.00
1:53 am 01:53 Mostly Cloudy 52 11.1 40 4.4 63 63 Calm 30.21 1023 10 16 0.00 0.00
2:53 am 02:53 Cloudy 53 11.7 39 3.9 59 59 VRB 3 6 30.21 1023 10 16 0.00 0.00
3:53 am 03:53 Mostly Cloudy 51 10.6 37 2.8 58 58 ENE 5 7 30.20 1023 10 16 0.00 0.00
4:53 am 04:53 Mostly Cloudy 51 10.6 36 2.2 56 56 VRB 5 7 30.20 1023 10 16 0.00 0.00
5:53 am 05:53 Cloudy 52 11.1 35 1.7 52 52 VRB 3 6 30.21 1023 10 16 0.00 0.00
6:30 am 06:30 Cloudy 52 11.1 35 1.7 52 52 Calm 30.23 1024 10 16 0.00 0.00
6:53 am 06:53 Cloudy 52 11.1 35 1.7 52 52 VRB 5 7 30.23 1024 10 16 0.00 0.00
7:32 am 07:32 Cloudy 53 11.7 33 0.6 46 46 VRB 5 7 30.24 1024 10 16 0.00 0.00
7:53 am 07:53 Cloudy 53 11.7 33 0.6 46 46 VRB 5 7 30.25 1024 10 16 0.00 0.00
8:53 am 08:53 Cloudy 54 12.2 31 -0.6 41 41 VRB 5 7 30.28 1026 10 16 0.00 0.00
9:53 am 09:53 Cloudy 55 12.8 33 0.6 43 43 undefined N/A 30.29 1026 10 16 0.00 0.00
10:53 am 10:53 Cloudy 56 13.3 33 0.6 42 42 VRB 5 7 30.28 1026 10 16 0.00 0.00
11:53 am 11:53 Cloudy 58 14.4 32 0 37 37 undefined N/A 30.26 1025 10 16 0.00 0.00
12:26 pm 12:26 Cloudy 58 14.4 31 -0.6 36 36 VRB 7 11 30.23 1024 10 16 0.00 0.00
12:53 pm 12:53 Cloudy 59 15 34 1.1 39 39 VRB 7 11 30.22 1024 10 16 0.00 0.00
1:21 pm 13:21 Cloudy 60 15.6 35 1.7 39 39 VRB 3 6 30.20 1023 10 16 0.00 0.00
1:53 pm 13:53 Cloudy 60 15.6 36 2.2 40 40 ESE 7 11 30.19 1023 10 16 0.00 0.00
2:28 pm 14:28 Cloudy 61 16.1 37 2.8 41 41 E 6 9 30.18 1022 10 16 0.00 0.00
2:53 pm 14:53 Cloudy 60 15.6 37 2.8 42 42 undefined N/A 30.18 1022 10 16 0.00 0.00
3:41 pm 15:41 Cloudy 61 16.1 37 2.8 41 41 undefined N/A 30.16 1021 10 16 0.00 0.00
3:53 pm 15:53 Cloudy 60 15.6 36 2.2 40 40 VRB 3 6 30.16 1021 10 16 0.00 0.00
4:08 pm 16:08 Cloudy 60 15.6 36 2.2 40 40 VRB 6 9 30.16 1021 10 16 0.00 0.00
4:53 pm 16:53 Mostly Cloudy 60 15.6 37 2.8 42 42 VRB 5 7 30.15 1021 10 16 0.00 0.00
5:08 pm 17:08 Mostly Cloudy 60 15.6 37 2.8 42 42 VRB 7 11 30.15 1021 10 16 0.00 0.00
5:53 pm 17:53 Cloudy 59 15 34 1.1 39 39 VRB 3 6 30.16 1021 10 16 0.00 0.00
6:53 pm 18:53 Cloudy 58 14.4 32 0 37 37 VRB 7 11 30.17 1022 10 16 0.00 0.00
7:53 pm 19:53 Cloudy 58 14.4 31 -0.6 36 36 undefined N/A 30.17 1022 10 16 0.00 0.00
8:53 pm 20:53 Cloudy 57 13.9 37 2.8 47 47 undefined N/A 30.16 1021 10 16 0.00 0.00
9:53 pm 21:53 Cloudy 56 13.3 42 5.6 60 60 VRB 6 9 30.16 1022 10 16 0.00 0.00
10:53 pm 22:53 Cloudy 56 13.3 41 5 57 57 VRB 5 7 30.17 1022 10 16 0.00 0.00
11:53 pm 23:53 Cloudy with Light Rain 54 12.2 44 6.7 69 69 E 3 6 30.18 1022 10 16 0.01 0.13

Powered by AerisWeather